Regional Weather Roundup
Issued by NWS

Home | Current Version | Previous Version | Graphics & Text | Print | Product List | Glossary On
Versions: 1 2 3 4 5 6 7 8 9 10 11 12 13 14 15 16 17 18 19 20 21 22 23 24 25 26 27 28 29 30 31 32 33 34 35 36 37 38 39 40 41 42 43 44 45 46 47 48 49 50
000
ASUS43 KLOT 171403
RWRIL

ILLINOIS REGIONAL WEATHER ROUNDUP
NATIONAL WEATHER SERVICE CHICAGO/ROMEOVILLE IL
800 AM CST FRI NOV 17 2017

NOTE: "FAIR" INDICATES FEW OR NO CLOUDS BELOW 12,000 FEET WITH NO
SIGNIFICANT WEATHER AND/OR OBSTRUCTIONS TO VISIBILITY.

* THESE STATIONS ARE NOT UNDER NWS QUALITY CONTROL. THEY ALSO MAY NOT
  REPORT WEATHER SUCH AS PRECIPITATION OR FOG.

ILZ001-002-007-009-015-016-024-171500-
NORTHWEST ILLINOIS

CITY           SKY/WX    TMP DP  RH WIND       PRES   REMARKS
MOLINE         CLOUDY    36  30  79 SE12G24   29.95F WCI  28
STERLING*      CLOUDY    33  30  88 SE12G17   30.03  WCI  24
SAVANNA*       CLOUDY    33  30  88 SE15G23   29.98F WCI  23
$$

ILZ003-004-008-010-011-017-018-171500-
NORTH CENTRAL ILLINOIS

CITY           SKY/WX    TMP DP  RH WIND       PRES   REMARKS
ROCKFORD       CLOUDY    33  29  85 S17G28    30.04F WCI  22
FREEPORT*      CLOUDY    33  30  90 SE13      30.01F WCI  23
ROCHELLE*      CLOUDY    32  30  92 SE20      30.04F FOG     WCI  20
DE KALB*       CLOUDY    33  30  92 SE20      30.04F WCI  21
PERU*          CLOUDY    32  28  86 S16G22    30.07S WCI  21
$$

ILZ005-006-012>014-019>023-171500-
NORTHEAST ILLINOIS

CITY           SKY/WX    TMP DP  RH WIND       PRES   REMARKS
CHICAGO-OHARE  CLOUDY    36  30  79 S13       30.10R WCI  27
CHICAGO-MIDWAY CLOUDY    36  31  82 S12G21    30.11F WCI  28
AURORA         CLOUDY    34  30  85 SE17G23   30.07F WCI  23
LANSING*       CLOUDY    35  32  90 S12G18    30.12F WCI  26
JOLIET*        MOSUNNY   35  32  88 S10G16    30.11F WCI  27
WAUKEGAN       MOSUNNY   36  31  82 S12       30.07F WCI  28
DUPAGE AIRPORT CLOUDY    34  31  88 S14       30.09S FOG     WCI  25
KANKAKEE*      SUNNY     33  30  87 SE16      30.12F WCI  23
WHEELING       MOSUNNY   37  32  82 S20       30.10F WCI  27
MORRIS*        CLOUDY    34  30  85 S13G22    30.10S WCI  25
ROMEOVILLE*    PTSUNNY   34  31  89 S16       30.09F WCI  23
NORTHERLY ISL    N/A     36  30  79 SE12        N/A  WCI  28
$$

LMZ740>746-171500-
SOUTHERN LAKE MICHIGAN

STATION/POSITION SKY/WX   TEMP    WIND        PRES    VSBY  WAVE
                          AIR SEA DIR/SP/G                  HT/PER
                          (F)     (DEG/KT/KT) (MB)    (MI)  (FT/S)
SOUTHERN BUOY              40 50  160/ 19/ 23 1020.3          4/ 4
HARRISON CRIB              38     180/ 23/ 28   N/A
BURNHAM HARBOR             36     140/ 12/ 16   N/A
CALUMET HARBOR             35     150/ 12/ 18 1019.1F
BURNS HARBOR               36     170/ 12/ 18 1020.3F
MICHIGAN CITY              35     150/ 14/ 17   N/A
$$

ILZ025>027-034>036-040-047-049-050-058-095>099-171500-
WEST-CENTRAL ILLINOIS

CITY           SKY/WX    TMP DP  RH WIND       PRES   REMARKS
QUINCY         CLOUDY    37  32  82 SE17G24   29.94F HAZE    WCI  27
GALESBURG*     CLOUDY    35  32  90 SE15      29.97F WCI  25
MACOMB*        LGT RAIN  35  33  93 SE14G23   30.00F WCI  25
JACKSONVILLE*  CLOUDY    34  32  92 SE13      30.03R FOG     WCI  25
PITTSFIELD*    CLOUDY    36  33  91 SE13      30.00F FOG     WCI  27
$$

ILZ028>032-037-038-041>044-048-051>054-059>061-171500-
CENTRAL ILLINOIS

CITY           SKY/WX    TMP DP  RH WIND       PRES   REMARKS
PONTIAC        CLOUDY    33  33  99 SE17      30.09F WCI  22
BLOOMINGTON    CLOUDY    32  30  92 S16       30.07F WCI  21
DECATUR        CLOUDY    33  30  88 S14       30.10S FOG     WCI  23
PEORIA         CLOUDY    35  31  85 SE13G28   30.03F WCI  26
LACON*         CLOUDY    34  31  90 S10G17    30.05F WCI  26
LINCOLN*       CLOUDY    34  33  94 SE12      30.06F FOG     WCI  25
SPRINGFIELD    CLOUDY    36  33  89 S20       30.05F FOG     WCI  25
TAYLORVILLE    CLOUDY    33  31  95 SE14G22   30.07F FOG     WCI  23
$$

ILZ033-039-045-046-055>057-062-063-171500-
EAST-CENTRAL ILLINOIS

CITY           SKY/WX    TMP DP  RH WIND       PRES   REMARKS
CHAMPAIGN      CLOUDY    32  29  88 SE17      30.11F FOG     WCI  21
DANVILLE*      CLOUDY    31  29  92 SE12      30.11S WCI  22
RANTOUL*       MOSUNNY   33  32  94 SE15      30.10F WCI  23
MATTOON        CLOUDY    31  30  96 S13G22    30.10S FOG     WCI  21
PARIS*         CLOUDY    31  30  96 SE16      30.15S FOG     WCI  20
$$

ILZ079-100>102-171500-
SOUTHWEST ILLINOIS

CITY           SKY/WX    TMP DP  RH WIND       PRES   REMARKS
ALTON          CLOUDY    32  32 100 SE12      30.06F FOG     WCI  23
BELLEVILLE     MOSUNNY   36  33  91 SE10      30.06F FOG     WCI  28
CAHOKIA*       CLOUDY    37  34  89 SE10      30.07R FOG     WCI  30
SPARTA*        CLOUDY    35  34  96 SE8       30.08F FOG     WCI  28
$$

ILZ064>066-069>071-074>076-080>082-084>086-088>090-092>094-171500-
SOUTH-CENTRAL ILLINOIS

CITY           SKY/WX    TMP DP  RH WIND       PRES   REMARKS
CARBONDALE     CLOUDY    34  34 100 SE3       30.11F FOG
CAIRO*         SUNNY     37  36  95 E5        30.12F FOG     WCI  34
EFFINGHAM*     CLOUDY    32  32 100 E10G18    30.14S FOG     WCI  24
MARION         MOSUNNY   34  34 100 SE7       30.13F FOG     WCI  28
MT. VERNON     CLOUDY    32  31  96 SE6       30.13F FOG     WCI  26
CENTRALIA*     CLOUDY    34  32  95 SE6       30.10F FOG     WCI  28
SALEM*         CLOUDY    33  32  96 SE8       30.12S FOG     WCI  26
METROPOLIS*    CLOUDY    35  35  98 E3        30.14F FOG
$$

ILZ067-068-072-073-078-083-087-091-171500-
SOUTHEAST ILLINOIS

CITY           SKY/WX    TMP DP  RH WIND       PRES   REMARKS
LAWRENCEVILLE  CLOUDY    33  31  92 SE14      30.18F FOG     WCI  23
FLORA*         FOG       33  32  96 SE8       30.15F VSB 1/2 WCI  26
FAIRFIELD*     FOG       32  32 100 SE5       30.14F VSB 1/4 WCI  27
HARRISBURG*    CLOUDY    33  33  99 E8        30.15F FOG     WCI  26
ROBINSON*      CLOUDY    31  31  99 SE14      30.18F FOG     WCI  20
CARMI*         FOG       33  33 100 SE10      30.15F VSB 1/4 WCI  25
$$

ABBREVIATIONS USED IN REMARKS
   TC - TEMPERATURE IN CELSIUS
  WCI - WIND CHILL INDEX
   HX - HEAT INDEX
  VSB - VISIBILITY
$$





USA.gov is the U.S. government's official web portal to all federal, state and local government web resources and services.